LRCK Weather Reports


Display with metric or nautical units.
time (UTC)temp
F
wind
direction
speed
MPH
gust
MPH
rain 1hr
in
rain 24hr
in
rain mn
in
humidity
%
barometer
mb
20260509024816 52 100 6.0 0.0 0.00 0.00 0.00 100 1015.0
20260509023317 52 100 6.0 0.0 0.00 0.00 0.00 100 1015.0
20260509020317 52 60 5.0 0.0 0.00 0.00 0.00 100 1015.0
20260509014817 52 80 3.0 0.0 0.00 0.00 0.00 100 1015.0
20260509013317 52 80 3.0 0.0 0.00 0.00 0.00 100 1015.0
20260509011817 52 100 5.0 0.0 0.00 0.00 0.00 100 1015.0
20260509010317 52 100 5.0 0.0 0.00 0.00 0.00 100 1015.0
20260509004817 52 130 3.0 0.0 0.00 0.00 0.00 100 1015.0
20260509003317 52 130 3.0 0.0 0.00 0.00 0.00 100 1015.0
20260509001814 52 2.0 0.0 0.00 0.00 0.00 100 1015.0
20260509000318 52 2.0 0.0 0.00 0.00 0.00 100 1015.0
20260508234817 52 2.0 0.0 0.00 0.00 0.00 100 1015.0
20260508233317 52 2.0 0.0 0.00 0.00 0.00 100 1015.0
20260508231817 52 130 5.0 0.0 0.00 0.00 0.00 100 1016.0
20260508230317 52 130 5.0 0.0 0.00 0.00 0.00 100 1016.0
20260508224817 52 120 6.0 0.0 0.00 0.00 0.00 100 1016.0
20260508223317 52 120 6.0 0.0 0.00 0.00 0.00 100 1016.0
20260508221817 52 110 7.0 0.0 0.00 0.00 0.00 100 1016.0
20260508220317 52 110 7.0 0.0 0.00 0.00 0.00 100 1016.0
20260508214816 52 110 8.0 0.0 0.00 0.00 0.00 100 1016.0
20260508213317 52 110 8.0 0.0 0.00 0.00 0.00 100 1016.0
20260508211817 52 110 7.0 0.0 0.00 0.00 0.00 100 1016.0
20260508210317 52 110 7.0 0.0 0.00 0.00 0.00 100 1016.0
20260508200317 52 120 8.0 0.0 0.00 0.00 0.00 100 1016.0
20260508193317 52 110 8.0 0.0 0.00 0.00 0.00 100 1016.0
20260508190317 52 110 10.0 0.0 0.00 0.00 0.00 100 1016.0
20260508184817 52 100 9.0 0.0 0.00 0.00 0.00 100 1015.0
20260508183317 52 100 9.0 0.0 0.00 0.00 0.00 100 1015.0
20260508181820 52 110 9.0 0.0 0.00 0.00 0.00 100 1015.0
20260508180317 52 110 9.0 0.0 0.00 0.00 0.00 100 1015.0
20260508173317 52 120 9.0 0.0 0.00 0.00 0.00 100 1015.0
20260508171817 54 110 9.0 0.0 0.00 0.00 0.00 94 1015.0
20260508170317 54 110 9.0 0.0 0.00 0.00 0.00 94 1015.0
20260508164817 54 120 10.0 0.0 0.00 0.00 0.00 94 1016.0
20260508163318 54 120 10.0 0.0 0.00 0.00 0.00 94 1016.0
20260508161817 54 140 10.0 0.0 0.00 0.00 0.00 94 1016.0
20260508160317 54 140 10.0 0.0 0.00 0.00 0.00 94 1016.0
20260508154818 55 100 10.0 0.0 0.00 0.00 0.00 88 1015.0
20260508153317 55 100 10.0 0.0 0.00 0.00 0.00 88 1015.0
20260508151817 57 110 10.0 0.0 0.00 0.00 0.00 82 1016.0
20260508150317 57 110 10.0 0.0 0.00 0.00 0.00 82 1016.0
20260508144818 59 110 11.0 0.0 0.00 0.00 0.00 77 1016.0
20260508143317 59 110 11.0 0.0 0.00 0.00 0.00 77 1016.0
20260508141817 59 120 11.0 0.0 0.00 0.00 0.00 77 1016.0
20260508140317 59 120 11.0 0.0 0.00 0.00 0.00 77 1016.0
20260508134933 59 130 11.0 0.0 0.00 0.00 0.00 77 1016.0
20260508133317 59 130 11.0 0.0 0.00 0.00 0.00 77 1016.0
20260508131817 59 120 11.0 0.0 0.00 0.00 0.00 82 1016.0
20260508130318 59 120 11.0 0.0 0.00 0.00 0.00 82 1016.0
20260508124816 59 110 11.0 0.0 0.00 0.00 0.00 82 1017.0
20260508123317 59 110 11.0 0.0 0.00 0.00 0.00 82 1017.0
20260508121825 61 130 9.0 0.0 0.00 0.00 0.00 77 1017.0
20260508120316 61 130 9.0 0.0 0.00 0.00 0.00 77 1017.0
20260508114817 61 120 10.0 0.0 0.00 0.00 0.00 77 1017.0
20260508113317 61 120 10.0 0.0 0.00 0.00 0.00 77 1017.0
20260508111817 61 120 10.0 0.0 0.00 0.00 0.00 77 1016.0
20260508110317 61 120 10.0 0.0 0.00 0.00 0.00 77 1016.0
20260508104819 63 120 10.0 0.0 0.00 0.00 0.00 77 1017.0
20260508103332 63 110 10.0 0.0 0.00 0.00 0.00 73 1017.0
20260508101818 63 110 10.0 0.0 0.00 0.00 0.00 73 1017.0
20260508100317 63 110 10.0 0.0 0.00 0.00 0.00 73 1017.0
20260508094817 63 110 10.0 0.0 0.00 0.00 0.00 73 1017.0
20260508093317 63 110 10.0 0.0 0.00 0.00 0.00 73 1017.0
20260508091817 61 120 8.0 0.0 0.00 0.00 0.00 77 1017.0
20260508090317 61 120 8.0 0.0 0.00 0.00 0.00 77 1017.0
20260508084817 63 130 9.0 0.0 0.00 0.00 0.00 73 1017.0
20260508083317 63 130 9.0 0.0 0.00 0.00 0.00 73 1017.0
20260508081817 61 130 10.0 0.0 0.00 0.00 0.00 77 1017.0
20260508080317 61 130 10.0 0.0 0.00 0.00 0.00 77 1017.0
20260508074814 59 130 9.0 0.0 0.00 0.00 0.00 82 1017.0
20260508073317 59 130 9.0 0.0 0.00 0.00 0.00 82 1017.0
20260508071817 59 130 9.0 0.0 0.00 0.00 0.00 82 1017.0
20260508070318 59 130 9.0 0.0 0.00 0.00 0.00 82 1017.0
20260508064818 59 120 11.0 0.0 0.00 0.00 0.00 77 1017.0
20260508063317 59 120 11.0 0.0 0.00 0.00 0.00 77 1017.0
20260508061814 57 130 7.0 0.0 0.00 0.00 0.00 88 1017.0
20260508060317 57 130 7.0 0.0 0.00 0.00 0.00 88 1017.0
20260508054815 55 120 7.0 0.0 0.00 0.00 0.00 88 1017.0
20260508053317 55 120 7.0 0.0 0.00 0.00 0.00 88 1017.0
20260508051818 52 140 6.0 0.0 0.00 0.00 0.00 100 1017.0
20260508050318 52 140 6.0 0.0 0.00 0.00 0.00 100 1017.0
20260508044817 52 150 7.0 0.0 0.00 0.00 0.00 100 1017.0
20260508043317 52 150 7.0 0.0 0.00 0.00 0.00 100 1017.0
20260508041815 52 120 5.0 0.0 0.00 0.00 0.00 94 1017.0
20260508040318 52 120 5.0 0.0 0.00 0.00 0.00 94 1017.0
20260508034815 50 140 7.0 0.0 0.00 0.00 0.00 100 1017.0
20260508033317 50 140 7.0 0.0 0.00 0.00 0.00 100 1017.0
20260508031817 50 140 6.0 0.0 0.00 0.00 0.00 100 1017.0
20260508030317 50 140 6.0 0.0 0.00 0.00 0.00 100 1017.0